Location: Unspecified
(43.0000°N, 0.0000°E)
Time: 12:23:27
(UTC+00:00)

PicSat - Pass Details

Date: 20 August 2020
Orbit: 482 x 496 km, 97.4° (Epoch: 21 September)

Event Time Altitude Azimuth Distance (km) Brightness Sun altitude
Exits shadow 22:40:29 16° 311° (NW) 1,378 ? -31.8°
Drops below altitude 10° 22:41:29 10° 322° (NW) 1,700 ? -31.9°
Sets 22:43:49 0° 336° (NNW) 2,586 ? -32.0°
